Change the Weather History Date:

Sunday, May 12, 2013

  Actual Average Record
Temperature  
Mean Temperature 44 °F -  
Max Temperature 55 °F 69 °F 87 °F (1961)
Min Temperature 30 °F 42 °F 26 °F (1969)
Degree Days  
Heating Degree Days 22    
Moisture  
Dew Point 21 °F    
Average Humidity 44    
Maximum Humidity 82    
Minimum Humidity 21    
Precipitation  
Precipitation 0.00 in - - ()
Sea Level Pressure  
Sea Level Pressure 30.12 in    
Wind  
Wind Speed 8 mph (NW)    
Max Wind Speed 17 mph    
Max Gust Speed 25 mph    
Visibility 10 miles    
Events      
Averages and records for this station are not official NWS values.
T = Trace of Precipitation, MM = Missing Value Source: NWS Daily Summary

Daily Weather History Graph

Daily Weather History Graph

Search for Another Location

Airport or City:

Trip Planner

Search our weather history database for the weather conditions in past years. The results will help you decide how hot, cold, wet, or windy it might be!

Date:

Astronomy

May. 12, 2013 Rise Set
Actual Time 5:40 AM CDT 8:19 PM CDT
Civil Twilight 5:07 AM CDT 8:52 PM CDT
Nautical Twilight 4:25 AM CDT 9:34 PM CDT
Astronomical Twilight 3:38 AM CDT 10:21 PM CDT
Moon 7:34 AM CDT (5/12) 10:47 PM CDT (5/12)
Length of Visible Light 15h 45m
Length of Day
14h 39m
Waxing Crescent, 7% of the Moon is Illuminated
May 12
Waxing Crescent
May 17
First Quarter
May 24
Full
May 31
Last Quarter
Jun 8
New

Hourly Weather History & Observations

Time (CDT) Temp. Windchill Dew Point Humidity Pressure Visibility Wind Dir Wind Speed Gust Speed Precip Events Conditions
12:15 AM 42.3 °F 37.9 °F 23.9 °F 48% 30.11 in 10.0 mi NNW 6.9 mph - N/A   Mostly Cloudy
12:35 AM 41.9 °F 36.9 °F 25.5 °F 52% 30.10 in 10.0 mi NNW 8.1 mph - N/A   Overcast
12:55 AM 41.9 °F 35.9 °F 25.5 °F 52% 30.11 in 10.0 mi NW 10.4 mph 16.1 mph N/A   Mostly Cloudy
1:15 AM 41.0 °F 35.8 °F 25.5 °F 54% 30.11 in 10.0 mi NW 8.1 mph - N/A   Scattered Clouds
1:35 AM 40.5 °F 34.1 °F 25.2 °F 54% 30.11 in 10.0 mi NNW 10.4 mph 20.7 mph N/A   Scattered Clouds
1:55 AM 39.6 °F 34.7 °F 24.8 °F 56% 30.12 in 10.0 mi NNW 6.9 mph - N/A   Clear
2:15 AM 39.2 °F 35.9 °F 25.0 °F 57% 30.12 in 10.0 mi NW 4.6 mph - N/A   Clear
2:35 AM 38.3 °F 34.8 °F 25.3 °F 60% 30.12 in 10.0 mi WNW 4.6 mph - N/A   Scattered Clouds
2:55 AM 38.3 °F 33.2 °F 25.5 °F 60% 30.12 in 10.0 mi WNW 6.9 mph - N/A   Scattered Clouds
3:15 AM 38.7 °F 34.3 °F 25.2 °F 58% 30.12 in 10.0 mi NW 5.8 mph - N/A   Mostly Cloudy
3:35 AM 37.9 °F 33.5 °F 25.0 °F 60% 30.12 in 10.0 mi NW 5.8 mph - N/A   Scattered Clouds
3:55 AM 37.6 °F 34.0 °F 25.2 °F 61% 30.12 in 10.0 mi NW 4.6 mph - N/A   Mostly Cloudy
4:35 AM 37.0 °F 31.6 °F 25.5 °F 63% 30.12 in 10.0 mi NW 6.9 mph - N/A   Scattered Clouds
4:55 AM 36.0 °F 32.1 °F 25.2 °F 65% 30.12 in 10.0 mi NW 4.6 mph - N/A   Clear
5:15 AM 35.2 °F 30.3 °F 24.6 °F 65% 30.13 in 10.0 mi NW 5.8 mph - N/A   Clear
5:35 AM 34.7 °F - 23.9 °F 65% 30.14 in 10.0 mi Calm Calm - N/A   Clear
6:15 AM 32.4 °F 27.9 °F 25.5 °F 76% 30.15 in 10.0 mi West 4.6 mph - N/A   Scattered Clouds
6:35 AM 35.2 °F 29.5 °F 24.3 °F 64% 30.15 in 10.0 mi NW 6.9 mph - N/A   Clear
6:55 AM 37.2 °F 31.2 °F 23.5 °F 58% 30.15 in 10.0 mi NW 8.1 mph - N/A   Clear
7:15 AM 38.3 °F 31.9 °F 23.2 °F 55% 30.15 in 10.0 mi WNW 9.2 mph 16.1 mph N/A   Clear
7:35 AM 38.7 °F 31.8 °F 23.2 °F 54% 30.16 in 10.0 mi NW 10.4 mph 17.3 mph N/A   Clear
7:55 AM 39.4 °F 35.2 °F 23.0 °F 52% 30.15 in 10.0 mi NW 5.8 mph - N/A   Clear
8:15 AM 39.7 °F 33.2 °F 23.7 °F 53% 30.16 in 10.0 mi WNW 10.4 mph 17.3 mph N/A   Clear
8:35 AM 40.1 °F 33.2 °F 22.6 °F 50% 30.16 in 10.0 mi NW 11.5 mph 19.6 mph N/A   Scattered Clouds
8:55 AM 40.6 °F 33.0 °F 22.3 °F 48% 30.16 in 10.0 mi NW 13.8 mph 19.6 mph N/A   Scattered Clouds
9:15 AM 42.8 °F 35.4 °F 21.2 °F 42% 30.16 in 10.0 mi NNW 15.0 mph 21.9 mph N/A   Clear
9:35 AM 41.9 °F 35.0 °F 21.4 °F 44% 30.16 in 10.0 mi WNW 12.7 mph 19.6 mph N/A   Scattered Clouds
10:15 AM 44.1 °F 37.7 °F 19.8 °F 38% 30.16 in 10.0 mi NNW 12.7 mph 20.7 mph N/A   Clear
10:35 AM 44.6 °F 37.2 °F 19.4 °F 37% 30.15 in 10.0 mi NNW 17.3 mph 23.0 mph N/A   Clear
10:55 AM 46.4 °F 42.4 °F 19.4 °F 34% 30.15 in 10.0 mi NNW 8.1 mph 18.4 mph N/A   Clear
11:15 AM 46.4 °F 40.7 °F 17.6 °F 32% 30.15 in 10.0 mi NNW 12.7 mph 20.7 mph N/A   Clear
11:35 AM 48.2 °F - 18.9 °F 31% 30.15 in 10.0 mi NNW 11.5 mph 20.7 mph N/A   Clear
11:55 AM 48.6 °F - 18.3 °F 30% 30.14 in 10.0 mi NW 13.8 mph 18.4 mph N/A   Clear
12:15 PM 48.9 °F - 16.3 °F 27% 30.14 in 10.0 mi WNW 11.5 mph 18.4 mph N/A   Clear
12:35 PM 49.1 °F - 16.2 °F 27% 30.13 in 10.0 mi NW 15.0 mph 23.0 mph N/A   Clear
12:55 PM 50.2 °F - 16.7 °F 27% 30.13 in 10.0 mi West 10.4 mph 20.7 mph N/A   Clear
1:15 PM 50.2 °F - 16.0 °F 26% 30.12 in 10.0 mi West 11.5 mph 21.9 mph N/A   Clear
1:35 PM 52.0 °F - 16.2 °F 24% 30.12 in 10.0 mi NW 17.3 mph 21.9 mph N/A   Clear
1:55 PM 52.7 °F - 16.7 °F 24% 30.12 in 10.0 mi NNW 13.8 mph 19.6 mph N/A   Clear
2:15 PM 52.7 °F - 16.7 °F 24% 30.11 in 10.0 mi WNW 15.0 mph 23.0 mph N/A   Clear
2:35 PM 53.8 °F - 15.8 °F 22% 30.11 in 10.0 mi NW 11.5 mph 25.3 mph N/A   Clear
2:55 PM 53.4 °F - 15.8 °F 23% 30.11 in 10.0 mi NW 10.4 mph 21.9 mph N/A   Clear
3:15 PM 53.4 °F - 15.1 °F 22% 30.10 in 10.0 mi WNW 15.0 mph 21.9 mph N/A   Clear
3:35 PM 53.6 °F - 17.6 °F 24% 30.10 in 10.0 mi West 12.7 mph 21.9 mph N/A   Clear
3:55 PM 54.3 °F - 16.5 °F 23% 30.09 in 10.0 mi NW 11.5 mph 16.1 mph N/A   Clear
4:35 PM 55.4 °F - 17.1 °F 22% 30.09 in 10.0 mi NW 10.4 mph 23.0 mph N/A   Clear
5:15 PM 54.5 °F - 15.4 °F 21% 30.09 in 10.0 mi NW 13.8 mph 20.7 mph N/A   Clear
5:35 PM 54.7 °F - 16.0 °F 22% 30.09 in 10.0 mi WNW 11.5 mph 17.3 mph N/A   Clear
5:55 PM 55.4 °F - 15.8 °F 21% 30.09 in 10.0 mi NW 13.8 mph 20.7 mph N/A   Clear
6:15 PM 54.7 °F - 18.1 °F 24% 30.08 in 10.0 mi NW 12.7 mph 18.4 mph N/A   Clear
6:55 PM 53.6 °F - 17.6 °F 24% 30.08 in 10.0 mi WNW 8.1 mph 11.5 mph N/A   Clear
7:15 PM 53.1 °F - 17.1 °F 24% 30.09 in 10.0 mi NNW 11.5 mph 17.3 mph N/A   Clear
7:55 PM 51.8 °F - 17.6 °F 26% 30.09 in 10.0 mi WNW 8.1 mph 17.3 mph N/A   Clear
8:15 PM 50.0 °F - 19.4 °F 30% 30.09 in 10.0 mi NW 4.6 mph - N/A   Clear
8:35 PM 48.7 °F - 19.2 °F 31% 30.09 in 10.0 mi WNW 4.6 mph - N/A   Clear
8:55 PM 46.4 °F - 19.4 °F 34% 30.10 in 10.0 mi Calm Calm - N/A   Clear
9:15 PM 42.8 °F - 21.2 °F 42% 30.10 in 10.0 mi Calm Calm - N/A   Clear
9:35 PM 39.2 °F - 23.0 °F 52% 30.10 in 10.0 mi Calm Calm - N/A   Clear
9:55 PM 36.3 °F - 24.4 °F 62% 30.11 in 10.0 mi Calm Calm - N/A   Clear
10:35 PM 35.6 °F - 24.8 °F 65% 30.12 in 10.0 mi Calm Calm - N/A   Clear
10:55 PM 32.2 °F - 25.2 °F 75% 30.12 in 10.0 mi Calm Calm - N/A   Clear
11:15 PM 32.0 °F - 25.3 °F 76% 30.12 in 10.0 mi Calm Calm - N/A   Clear
11:35 PM 32.0 °F - 25.3 °F 76% 30.12 in 10.0 mi Calm Calm - N/A   Clear
11:55 PM 30.6 °F - 25.5 °F 82% 30.12 in 10.0 mi Calm Calm - N/A   Clear